User: anonymous
Location: Columbia
(38.9520°N, 92.3340°W)
Time: 15:19:51
(UTC-05:00)
Language:

Meteor 1-4 Rocket - Orbit

View from above orbital plane
View from above orbital plane
View from above satellite
View from above satellite

Ground track
Ground track

The orbit data is extracted from the following two-line orbital elements,

1 04394U 70037B   14203.47187688  .00001346  00000-0  58271-4 0  6286
2 04394 081.2461 175.0418 0049735 130.7093 229.8475 15.20510586403075
Epoch (UTC): 22 July 2014 11:19:30
Eccentricity: 0.0049735
inclination: 81.2461°
perigee height: 470 km
apogee height: 538 km
right ascension of ascending node: 175.0418°
argument of perigee: 130.7093°
revolutions per day: 15.20510586
mean anomaly at epoch: 229.8475°
orbit number at epoch: 40307

The dashed part of the orbit path shows where the satellite is in the earth's shadow,  

DLR